Regional Weather Roundup
Issued by NWS Spokane, WA

Home | Current Version | Previous Version | Text Only | Print | Product List | Glossary On
Versions: 1 2 3 4 5 6 7 8 9 10 11 12 13 14 15 16 17 18 19 20 21 22 23 24 25 26 27 28 29 30 31 32 33 34 35 36 37 38 39 40 41 42 43 44 45 46 47 48 49 50
000
NZUS01 KOTX 221005
RWROTX
EASTERN WASHINGTON/NORTHERN IDAHO ROUNDUP
NATIONAL WEATHER SERVICE, SPOKANE WA
300 AM PDT FRI MAY 22 2015

Note: "fair" indicated few or no clouds below 12,000 feet with no
significant weather and/or obstructions to visibility.

...NORTHEAST WASHINGTON AND NORTHERN IDAHO PANHANDLE...

CITY           SKY/WX    TMP DP  RH WIND       PRES   REMARKS
SPOKANE INTL   MOCLDY    62  51  67 SE6       29.84S
SPOKANE DOWNTO MOCLDY    60  54  80 NE6       29.84R
COEUR D ALENE  PTCLDY    57  46  67 SE5       29.85S
DEER PARK      MOCLDY    52  47  83 NE7       29.85R
SANDPOINT      PTCLDY    52  43  71 CALM      29.86S
BONNERS FERRY  FAIR      52  37  58 CALM      29.87S

...SOUTHEAST WASHINGTON AND SOUTHERN IDAHO PANHANDLE...

CITY           SKY/WX    TMP DP  RH WIND       PRES   REMARKS
WALLA WALLA    CLOUDY    66  53  63 S7        29.83R
PULLMAN/MOSCOW PTCLDY    57  51  80 CALM      29.87S
LEWISTON       MOCLDY    60  53  77 S6        29.83S
LOWELL           N/A     52  49  89 CALM      29.91R

...COLUMBIA BASIN...

CITY           SKY/WX    TMP DP  RH WIND       PRES   REMARKS
EPHRATA        MOCLDY    58  49  72 S3        29.80S
MOSES LAKE     MOCLDY    65  51  60 NW13      29.78F
TRI CITIES     PTCLDY    62  55  77 CALM      29.79S
HERMISTON      MOCLDY    58  53  84 CALM      29.81R
PENDLETON      PTCLDY    59  51  75 SE7       29.84S

...EAST SLOPES CASCADES...

CITY           SKY/WX    TMP DP  RH WIND       PRES   REMARKS
THE DALLES     MOCLDY    66  56  70 MISG      29.81R
YAKIMA         PTCLDY    65  51  60 N6        29.82R
ELLENSBURG     PTCLDY    63  51  65 NW12      29.83R
WENATCHEE      MOCLDY    66  47  50 NW9       29.81S
OMAK           MOCLDY    62  45  53 N8        29.80F

...SOUTHERN BRITISH COLUMBIA...

CITY           SKY/WX    TMP DP  RH WIND       PRES   REMARKS

...WESTERN MONTANA...

CITY           SKY/WX    TMP DP  RH WIND       PRES   REMARKS
MISSOULA       CLEAR     46  41  82 CALM      29.94R

...NEIGHBORING CITIES...

CITY           SKY/WX    TMP DP  RH WIND       PRES   REMARKS
SEATTLE        CLOUDY    54  50  86 S9        29.92R



USA.gov is the U.S. government's official web portal to all federal, state and local government web resources and services.